Location: Cossonay
(46.5833°N, 6.4167°E)
Time: 20:52:04
(UTC+00:00)

Cosmos 1758 Rocket - Visible Passes

Search period start: 29 September 2020 00:00
Search period end: 09 October 2020 00:00
Orbit: 603 x 635 km, 82.5° (Epoch: 28 September)

Date Brightness Start Highest point End Pass type
(mag) Time Alt. Az. Time Alt. Az. Time Alt. Az.
29 Sep 5.7 20:14:41 10° N 20:16:14 21° N 20:16:14 21° N visible
30 Sep 5.9 18:55:56 10° NE 18:56:24 11° NE 18:56:24 11° NE visible
30 Sep 5.8 20:32:01 10° NNW 20:33:33 21° NNW 20:33:33 21° NNW visible
01 Oct 5.5 19:12:13 10° NNE 19:13:43 16° NE 19:13:43 16° NE visible
01 Oct 6.1 20:49:31 10° NNW 20:50:53 19° NNW 20:50:53 19° NNW visible
02 Oct 5.3 19:29:04 10° N 19:31:05 23° NNE 19:31:05 23° NNE visible
02 Oct 6.5 21:07:20 10° NW 21:08:15 14° NW 21:08:15 14° NW visible
03 Oct 5.1 19:46:12 10° N 19:48:28 29° N 19:48:28 29° N visible
04 Oct 5.6 18:27:19 10° NE 18:28:43 13° NE 18:28:43 13° NE visible
04 Oct 5.2 20:03:31 10° NNW 20:05:53 30° NNW 20:05:53 30° NNW visible
05 Oct 5.1 18:43:40 10° NNE 18:46:09 21° NE 18:46:09 21° NE visible
05 Oct 5.6 20:21:04 10° NNW 20:23:19 26° NW 20:23:19 26° NW visible
06 Oct 4.6 19:00:34 10° N 19:03:38 32° NE 19:03:38 32° NE visible
06 Oct 6.2 20:38:54 10° NW 20:40:47 19° WNW 20:40:47 19° WNW visible
07 Oct 4.1 19:17:42 10° N 19:21:09 49° NNE 19:21:09 49° NNE visible
07 Oct 6.6 20:57:22 10° NW 20:58:19 12° WNW 20:58:19 12° WNW visible
08 Oct 5.3 17:58:43 10° NNE 18:01:08 14° ENE 18:01:32 14° ENE visible
08 Oct 4.2 19:35:04 10° NNW 19:38:43 54° NW 19:38:43 54° NW visible
